Temp
-5 -5 -6 -6 -6 -6 -7 -6 -7 -8 -7 -7 -7 -7 -6 -6 -6 -6 -6 -5 -5 -5 -6 -6 -6 -6 -6 -5 -5 -5 -4 -4 -4 -4 -4 -5 -5 -5 -5 -5 -4 -5 -5 -6
-6 -7 -7 -7 -7 -7 -7 -7 -8 -7 -7 -7 -7 -8 -7 -7 -7 -6 -6 -7 -6 -6 -6 -6 -6 -7 -6 -6 -6 -5 -5 -5 -4 -4 -4 -4 -4 -5 -5 -5 -5 -5 -6 -6
-8 -8 -8 -9 -8 -7 -8 -8 -8 -8 -8 -8 -8 -8 -8 -8 -8 -8 -8 -7 -7 -7 -6 -7 -7 -6 -6 -6 -6 -6 -5 -5 -5 -5 -5 -5 -6 -7 -7 -6 -6 -6 -6 -6
-9 -8 -9 -8 -7 -8 -8 -8 -8 -9 -9 -9 -9 -8 -8 -8 -9 -8 -8 -8 -7 -7 -7 -7 -7 -6 -7 -7 -7 -6 -6 -6 -5 -5 -5 -6 -7 -9 -8 -8 -8 -6 -6 -6
-9 -9 -8 -8 -7 -8 -9 -9 -9 -9 -9 -9 -9 -9 -8 -9 -9 -8 -8 -8 -8 -8 -7 -6 -6 -6 -7 -7 -7 -6 -6 -6 -6 -5 -5 -7 -7 -7 -7 -7 -7 -7 -7 -6
-9 -10 -11 -9 -9 -10 -10 -10 -9 -9 -9 -9 -9 -9 -8 -8 -8 -8 -9 -8 -8 -7 -7 -7 -6 -6 -7 -7 -7 -7 -6 -6 -6 -6 -5 -7 -7 -7 -7 -7 -7 -7 -7 -7
-9 -10 -10 -10 -10 -11 -11 -10 -10 -10 -9 -9 -9 -10 -9 -9 -9 -9 -8 -7 -7 -8 -8 -7 -6 -7 -7 -7 -7 -7 -6 -7 -7 -7 -6 -7 -7 -8 -8 -8 -8 -8 -8 -8
-10 -10 -11 -11 -10 -11 -11 -10 -10 -10 -10 -10 -10 -10 -10 -10 -9 -9 -8 -8 -8 -8 -8 -7 -7 -7 -7 -7 -7 -7 -7 -7 -7 -7 -6 -6 -7 -8 -8 -9 -9 -10 -10 -10
-11 -11 -10 -11 -11 -11 -11 -11 -11 -11 -11 -10 -10 -10 -10 -10 -9 -8 -8 -8 -8 -7 -8 -8 -8 -7 -7 -8 -8 -7 -7 -7 -7 -7 -7 -7 -7 -8 -8 -9 -9 -10 -11 -11
-12 -10 -11 -11 -11 -11 -11 -11 -11 -11 -11 -11 -10 -10 -10 -9 -9 -8 -8 -8 -8 -7 -7 -7 -7 -8 -7 -7 -7 -7 -7 -7 -7 -7 -7 -7 -7 -8 -8 -8 -9 -10 -11 -11
-11 -10 -11 -11 -11 -11 -11 -11 -11 -10 -10 -10 -10 -10 -9 -9 -9 -9 -8 -8 -8 -8 -7 -7 -7 -7 -7 -7 -7 -7 -7 -7 -8 -7 -7 -7 -7 -8 -8 -9 -9 -9 -9 -10
-11 -11 -11 -11 -11 -11 -11 -11 -11 -10 -10 -10 -10 -9 -9 -9 -9 -9 -8 -8 -8 -8 -8 -8 -8 -7 -7 -8 -8 -8 -8 -8 -8 -8 -8 -7 -7 -8 -8 -9 -9 -9 -10 -10
-11 -11 -11 -11 -11 -11 -10 -10 -10 -10 -9 -9 -9 -9 -9 -9 -9 -9 -9 -8 -8 -8 -8 -8 -8 -8 -7 -8 -8 -8 -8 -8 -8 -8 -8 -8 -8 -8 -8 -8 -9 -10 -10 -10
-10 -10 -11 -10 -10 -10 -10 -10 -10 -9 -9 -9 -9 -9 -9 -9 -9 -9 -9 -9 -8 -8 -8 -8 -8 -8 -8 -8 -8 -8 -8 -8 -7 -8 -8 -8 -8 -8 -8 -8 -8 -9 -9 -9
-10 -10 -10 -10 -10 -10 -10 -10 -10 -9 -9 -9 -9 -9 -9 -9 -9 -9 -9 -9 -9 -9 -8 -8 -8 -8 -8 -8 -8 -8 -8 -8 -8 -8 -10 -9 -8 -8 -8 -8 -8 -9 -9 -8
-10 -10 -10 -9 -10 -10 -10 -9 -10 -10 -10 -10 -10 -10 -9 -9 -9 -9 -9 -9 -9 -9 -9 -9 -8 -8 -8 -8 -8 -8 -8 -8 -9 -10 -10 -10 -10 -9 -8 -8 -8 -9 -9 -9
-10 -10 -10 -10 -10 -10 -10 -10 -10 -10 -10 -10 -10 -10 -10 -10 -9 -9 -9 -9 -9 -9 -9 -9 -9 -9 -8 -8 -8 -8 -8 -9 -10 -10 -10 -10 -10 -9 -9 -9 -8 -9 -9 -9
-10 -10 -10 -11 -10 -10 -10 -10 -10 -10 -10 -10 -11 -11 -10 -10 -10 -10 -10 -10 -10 -10 -10 -10 -9 -9 -9 -9 -9 -9 -9 -9 -9 -9 -10 -10 -9 -9 -9 -9 -9 -9 -10 -9
-11 -11 -12 -12 -12 -12 -11 -11 -11 -11 -11 -11 -11 -12 -11 -11 -11 -11 -11 -11 -11 -11 -11 -10 -10 -10 -9 -9 -9 -9 -9 -9 -10 -9 -9 -9 -9 -9 -9 -10 -10 -10 -10 -10
-12 -12 -12 -13 -12 -12 -12 -12 -12 -12 -12 -12 -12 -12 -12 -12 -12 -12 -12 -12 -12 -12 -12 -11 -11 -11 -11 -10 -10 -10 -10 -10 -10 -10 -10 -11 -11 -11 -10 -10 -10 -10 -10 -10
-12 -13 -13 -13 -13 -13 -13 -13 -13 -13 -13 -13 -13 -13 -13 -13 -13 -13 -13 -13 -13 -13 -12 -12 -12 -11 -11 -11 -11 -10 -10 -10 -10 -10 -10 -11 -11 -11 -11 -11 -11 -11 -11 -10
-14 -14 -14 -13 -13 -13 -13 -13 -14 -14 -14 -14 -14 -14 -14 -14 -14 -14 -14 -14 -13 -13 -13 -13 -13 -12 -12 -11 -11 -11 -11 -11 -10 -10 -10 -10 -10 -11 -11 -11 -11 -11 -10 -10
-15 -15 -15 -15 -15 -15 -15 -15 -15 -15 -16 -16 -16 -16 -16 -16 -16 -15 -14 -14 -14 -14 -13 -13 -13 -13 -12 -12 -12 -12 -12 -11 -11 -11 -10 -10 -11 -11 -11 -11 -11 -10 -10 -11
-16 -16 -16 -17 -17 -17 -17 -17 -17 -17 -17 -17 -17 -18 -17 -17 -17 -17 -16 -16 -15 -15 -14 -14 -14 -13 -13 -13 -12 -12 -12 -12 -11 -11 -11 -11 -11 -11 -11 -11 -11 -11 -11 -11
-17 -17 -18 -18 -18 -18 -18 -18 -18 -18 -18 -19 -19 -19 -19 -19 -18 -18 -17 -17 -17 -16 -16 -15 -15 -14 -14 -13 -13 -13 -12 -12 -12 -12 -11 -11 -11 -11 -11 -11 -11 -11 -11 -11
-19 -19 -19 -19 -19 -20 -20 -21 -20 -21 -21 -21 -21 -20 -20 -20 -20 -20 -19 -19 -18 -18 -17 -16 -16 -16 -15 -14 -13 -13 -13 -13 -13 -12 -12 -12 -12 -11 -11 -11 -11 -11 -11 -11
-20 -20 -20 -20 -20 -21 -21 -21 -21 -22 -22 -21 -21 -21 -21 -20 -20 -20 -19 -19 -19 -19 -18 -18 -17 -17 -16 -15 -14 -14 -13 -13 -13 -13 -12 -12 -12 -12 -11 -11 -11 -11 -11 -11
Height
3010 3011 3010 3008 3008 3009 3008 3004 3002 2998 2996 2993 2988 2985 2982 2979 2973 2969 2964 2960 2956 2955 2951 2949 2947 2947 2947 2944 2940 2936 2932 2929 2927 2924 2921 2918 2915 2912 2911 2912 2914 2915 2915 2916
3006 3007 3006 3000 2999 2998 2997 2996 2994 2992 2990 2986 2984 2981 2978 2974 2967 2962 2956 2950 2946 2946 2943 2943 2941 2941 2941 2938 2935 2930 2926 2922 2917 2913 2909 2906 2902 2900 2898 2898 2899 2902 2905 2908
2998 3002 2999 2992 2991 2988 2986 2985 2986 2985 2983 2981 2979 2976 2973 2966 2961 2957 2952 2942 2940 2938 2936 2937 2937 2939 2938 2934 2931 2927 2922 2917 2912 2905 2898 2890 2883 2877 2877 2881 2885 2890 2895 2899
2995 2997 2993 2987 2988 2984 2981 2979 2978 2977 2978 2977 2973 2969 2969 2963 2957 2953 2947 2935 2932 2935 2935 2935 2934 2932 2932 2930 2927 2922 2917 2911 2905 2898 2890 2877 2868 2862 2862 2867 2874 2879 2885 2889
2993 2991 2986 2985 2985 2982 2978 2978 2978 2973 2972 2971 2968 2964 2965 2959 2954 2948 2942 2936 2933 2932 2931 2930 2927 2928 2927 2926 2923 2918 2912 2906 2899 2891 2881 2869 2863 2860 2860 2862 2866 2871 2876 2880
2991 2987 2983 2981 2981 2977 2973 2971 2972 2971 2969 2966 2962 2956 2955 2951 2948 2942 2937 2933 2932 2930 2929 2928 2926 2924 2923 2922 2918 2914 2908 2902 2894 2886 2877 2867 2862 2859 2858 2859 2861 2865 2869 2874
2984 2983 2978 2975 2971 2972 2974 2974 2970 2967 2965 2961 2957 2954 2948 2944 2942 2939 2935 2931 2930 2929 2927 2926 2922 2921 2920 2917 2914 2910 2905 2899 2891 2883 2876 2868 2863 2859 2857 2856 2857 2860 2864 2870
2983 2979 2976 2973 2971 2972 2971 2966 2964 2962 2958 2954 2952 2948 2945 2942 2938 2935 2932 2929 2927 2925 2923 2922 2920 2918 2916 2914 2911 2906 2902 2896 2889 2882 2876 2870 2865 2860 2857 2856 2856 2858 2862 2869
2985 2978 2972 2970 2968 2966 2963 2960 2958 2954 2952 2948 2946 2943 2940 2937 2934 2932 2929 2926 2923 2921 2919 2917 2916 2915 2912 2909 2906 2903 2898 2893 2888 2882 2877 2871 2867 2863 2860 2859 2859 2860 2864 2869
2978 2971 2968 2965 2963 2960 2956 2954 2951 2948 2945 2944 2942 2939 2936 2933 2932 2929 2926 2923 2920 2919 2916 2913 2912 2910 2907 2905 2902 2900 2895 2891 2886 2882 2877 2873 2869 2866 2863 2862 2862 2863 2866 2869
2969 2966 2963 2961 2958 2954 2951 2947 2943 2942 2941 2940 2938 2935 2932 2931 2928 2926 2923 2921 2918 2916 2913 2909 2906 2904 2900 2897 2895 2893 2890 2887 2884 2881 2876 2873 2870 2868 2866 2865 2866 2867 2869 2872
2963 2962 2959 2956 2953 2950 2947 2944 2942 2941 2939 2937 2934 2932 2931 2928 2926 2924 2922 2919 2916 2912 2910 2907 2904 2900 2896 2891 2888 2886 2885 2882 2880 2878 2875 2873 2870 2869 2867 2866 2867 2868 2871 2875
2956 2956 2953 2950 2948 2946 2943 2942 2940 2938 2937 2935 2933 2931 2928 2926 2924 2920 2918 2916 2913 2910 2907 2904 2900 2896 2892 2888 2884 2881 2879 2877 2874 2872 2872 2871 2870 2868 2868 2869 2868 2870 2874 2878
2953 2952 2949 2946 2944 2942 2941 2939 2937 2935 2934 2932 2931 2929 2927 2925 2922 2919 2916 2913 2911 2907 2904 2901 2897 2893 2889 2885 2881 2878 2874 2871 2868 2866 2866 2867 2867 2867 2868 2870 2872 2872 2875 2880
2949 2947 2945 2943 2941 2939 2937 2935 2934 2932 2931 2930 2928 2926 2924 2922 2919 2916 2913 2911 2908 2904 2901 2898 2894 2890 2885 2881 2877 2872 2867 2861 2857 2854 2855 2859 2861 2863 2864 2866 2870 2874 2876 2880
2945 2943 2941 2939 2937 2936 2935 2934 2933 2931 2929 2927 2925 2923 2920 2918 2915 2913 2910 2907 2904 2900 2897 2894 2890 2885 2881 2876 2871 2866 2859 2853 2849 2848 2848 2851 2853 2857 2860 2862 2865 2870 2874 2878
2941 2940 2938 2936 2934 2933 2932 2931 2930 2928 2926 2923 2921 2918 2916 2914 2911 2908 2905 2902 2898 2895 2891 2888 2884 2881 2876 2871 2866 2861 2855 2849 2847 2846 2846 2847 2848 2851 2854 2857 2861 2865 2870 2875
2937 2936 2934 2933 2931 2929 2927 2926 2924 2922 2920 2918 2915 2913 2910 2908 2905 2903 2899 2896 2893 2890 2886 2883 2879 2875 2871 2866 2862 2857 2851 2846 2843 2842 2842 2842 2843 2845 2847 2850 2855 2860 2866 2870
2932 2931 2930 2929 2927 2925 2922 2920 2918 2916 2914 2912 2909 2907 2904 2901 2899 2896 2893 2890 2887 2884 2881 2877 2874 2870 2866 2862 2857 2853 2848 2843 2838 2836 2835 2834 2835 2837 2840 2844 2849 2855 2860 2865
2928 2927 2925 2923 2921 2920 2917 2914 2911 2908 2906 2903 2901 2899 2896 2893 2891 2889 2886 2884 2881 2878 2875 2872 2868 2865 2861 2857 2853 2849 2845 2840 2835 2833 2830 2829 2828 2831 2834 2839 2844 2849 2855 2860
2921 2918 2916 2914 2912 2910 2907 2904 2901 2899 2896 2894 2891 2889 2887 2885 2883 2881 2879 2877 2875 2873 2871 2868 2864 2861 2857 2853 2849 2846 2843 2840 2836 2834 2831 2829 2828 2829 2832 2836 2840 2845 2851 2856
2913 2910 2907 2905 2902 2899 2897 2894 2891 2888 2886 2883 2881 2880 2878 2875 2874 2872 2870 2869 2867 2865 2863 2862 2860 2857 2853 2849 2846 2843 2840 2838 2835 2834 2833 2832 2832 2832 2834 2836 2840 2844 2849 2854
2902 2899 2897 2894 2892 2889 2886 2883 2880 2878 2876 2874 2871 2869 2867 2865 2863 2861 2860 2859 2857 2855 2854 2854 2852 2851 2849 2846 2843 2840 2838 2835 2834 2832 2832 2832 2832 2833 2835 2837 2839 2843 2847 2851
2892 2889 2886 2883 2880 2877 2875 2872 2870 2868 2866 2863 2861 2858 2856 2853 2852 2850 2848 2846 2845 2844 2844 2843 2843 2843 2842 2841 2839 2837 2834 2832 2831 2830 2829 2830 2830 2831 2833 2835 2837 2840 2844 2847
2882 2879 2875 2873 2870 2867 2864 2862 2859 2856 2853 2851 2849 2846 2844 2841 2839 2836 2835 2835 2834 2833 2832 2832 2833 2833 2833 2833 2833 2831 2830 2828 2827 2827 2827 2826 2827 2828 2830 2832 2834 2837 2839 2843
2872 2868 2864 2862 2858 2856 2853 2850 2848 2845 2842 2840 2837 2835 2832 2830 2828 2826 2823 2823 2822 2820 2820 2820 2821 2821 2822 2823 2824 2824 2824 2823 2822 2822 2822 2823 2823 2824 2825 2827 2829 2832 2835 2838
2863 2860 2856 2852 2849 2846 2843 2840 2837 2833 2830 2827 2824 2822 2819 2818 2816 2814 2813 2812 2810 2809 2808 2808 2808 2808 2809 2812 2814 2815 2816 2817 2816 2816 2816 2817 2818 2820 2821 2822 2824 2826 2829 2832
Wind_Speed
30 30 29 30 30 30 30 35 24 37 39 38 36 35 37 34 35 41 43 43 38 37 13 10 5 6 14 19 23 23 23 24 26 29 33 34 30 25 28 40 45 40 41 40
29 23 23 33 35 31 33 32 34 34 33 31 32 31 27 34 38 41 37 33 33 22 19 11 8 2 11 20 28 27 26 26 30 29 28 33 37 40 42 36 36 37 38 38
20 18 25 22 24 28 29 29 29 26 24 24 22 27 29 36 38 33 28 21 10 6 7 1 7 10 16 20 31 28 30 28 29 30 30 43 48 53 52 46 37 41 38 40
23 22 12 19 14 11 17 19 19 18 21 20 26 33 29 31 29 29 29 28 26 10 13 8 8 7 14 22 29 31 34 35 30 31 34 35 25 21 24 31 30 35 39 36
20 23 25 30 28 26 17 15 15 17 15 22 27 32 29 26 31 21 23 22 13 11 13 13 10 10 13 20 28 32 35 36 32 34 37 25 19 15 18 23 30 32 32 35
25 6 5 16 18 11 12 21 19 10 19 27 32 37 32 27 31 21 24 21 16 15 13 20 13 11 12 18 23 27 35 34 32 34 33 21 13 11 15 22 24 26 26 24
20 20 18 20 18 12 5 5 17 22 28 29 32 30 31 27 27 19 21 20 19 17 17 14 9 10 13 17 21 28 28 31 30 32 29 21 12 8 7 12 20 21 22 19
7 7 8 12 17 14 21 22 26 29 29 29 28 29 27 24 21 19 16 16 14 13 15 15 13 14 17 15 20 22 25 30 30 29 30 25 13 9 5 5 13 14 12 14
13 17 23 24 22 23 27 28 26 28 30 27 25 28 26 19 16 13 11 12 14 14 15 20 20 21 23 18 18 25 27 29 28 27 27 23 16 8 8 1 8 12 14 17
25 28 23 21 23 24 27 24 27 26 21 19 23 23 18 15 11 10 11 12 13 14 15 20 21 25 26 27 30 30 26 27 25 26 25 25 18 9 7 6 1 8 15 19
23 19 16 14 19 20 20 25 23 13 9 17 18 14 14 12 11 12 13 12 13 14 16 19 22 24 31 32 31 28 25 25 23 24 23 22 18 9 3 5 3 3 8 12
20 18 16 20 23 27 28 23 12 12 14 14 11 11 11 11 11 11 11 12 13 14 15 16 20 22 24 28 30 28 25 25 25 23 22 19 19 12 2 6 5 5 6 7
24 19 21 25 24 18 10 11 13 15 12 10 11 11 11 11 12 15 16 16 16 17 19 19 20 22 25 23 25 27 26 24 25 24 21 18 14 12 6 7 11 10 11 13
15 15 19 17 15 13 13 14 15 14 11 11 12 11 11 12 13 14 16 17 18 19 20 22 24 25 25 24 20 24 25 27 31 33 27 22 16 12 12 11 14 18 20 24
11 13 15 16 15 14 14 14 11 9 9 10 10 11 12 13 15 17 18 20 20 21 21 23 24 25 27 27 25 26 31 32 27 27 27 25 19 14 15 17 18 20 22 25
13 14 13 11 11 10 10 11 11 10 10 10 11 13 15 16 18 19 20 21 22 22 23 25 26 28 29 30 28 28 32 24 16 15 21 20 18 17 16 22 23 24 24 26
15 13 13 12 11 10 11 10 10 12 13 14 15 17 18 18 20 21 22 24 25 26 27 27 28 28 29 30 31 30 30 21 14 13 16 19 19 18 17 25 27 27 27 28
13 12 11 12 13 14 14 14 16 17 18 20 20 22 23 24 25 25 26 26 27 27 27 27 27 28 29 29 29 28 28 24 16 14 16 18 21 21 20 26 29 29 28 30
12 12 12 14 15 16 18 20 21 22 24 25 26 26 28 29 29 27 27 26 26 24 24 23 23 24 24 26 26 25 26 25 18 15 17 21 24 24 24 27 28 28 27 29
24 25 26 28 30 27 27 28 29 30 31 31 31 30 31 30 28 25 24 23 22 22 21 21 20 21 22 23 22 20 21 20 13 7 7 9 16 20 23 26 28 28 27 28
30 27 25 27 29 30 31 33 34 34 34 33 33 33 32 30 29 27 24 23 22 21 21 20 20 20 21 22 20 18 16 15 10 5 1 1 6 12 19 22 25 26 26 27
24 25 26 28 31 33 34 36 36 36 35 34 34 33 31 31 30 29 28 28 26 25 23 22 20 20 20 22 20 17 14 14 11 7 4 4 6 11 13 16 19 22 24 26
27 25 25 25 27 30 32 32 32 32 31 29 30 31 31 31 31 32 33 31 31 30 29 26 24 20 19 21 21 19 15 13 11 9 9 8 8 9 12 14 15 17 20 21
29 26 27 30 31 31 30 30 32 32 32 33 33 34 35 36 36 35 35 35 34 32 32 31 29 26 22 21 21 20 18 14 12 11 11 13 14 14 15 16 17 18 19 19
30 33 32 31 30 30 32 33 33 32 32 33 34 36 37 37 39 41 39 37 36 36 35 32 31 31 28 24 22 20 20 17 14 14 13 14 16 17 19 19 20 21 21 22
33 32 31 30 29 34 35 29 28 30 31 30 31 33 35 35 34 34 34 34 33 35 36 36 34 32 30 29 26 23 20 19 18 16 16 15 15 16 18 21 22 23 23 23
28 29 31 34 38 33 33 33 35 36 37 40 41 42 42 41 38 36 36 35 35 35 35 34 34 34 34 30 30 28 24 20 18 19 19 19 19 17 17 19 20 23 24 24
Wind_Direction
256 260 266 272 282 286 279 276 265 282 283 292 294 300 304 310 311 310 309 308 304 299 276 270 265 313 315 313 305 308 305 304 297 286 276 273 271 263 262 255 251 251 251 247
275 274 278 283 288 282 278 276 275 282 285 286 291 288 295 309 314 314 314 311 298 272 238 247 226 297 345 349 347 336 322 319 318 306 285 280 271 269 265 259 257 245 244 232
279 287 291 275 276 282 280 279 279 280 283 284 295 301 311 319 316 319 320 357 289 357 15 93 312 311 340 346 344 339 337 322 322 314 298 283 280 272 260 253 252 235 236 237
278 293 268 280 294 276 284 281 278 282 290 301 303 305 312 313 325 308 303 12 16 8 6 291 283 321 339 343 338 335 331 334 326 323 310 307 300 284 247 236 230 231 233 232
259 263 273 282 287 278 283 281 284 292 297 293 302 303 309 311 318 313 320 356 10 335 325 306 316 307 341 330 327 329 331 333 334 335 331 316 303 282 243 224 218 225 230 233
261 256 259 278 280 264 274 285 294 291 304 307 312 316 314 316 315 317 329 324 331 318 306 299 302 306 319 320 322 324 329 334 340 343 341 334 313 306 250 228 221 222 219 212
271 258 266 262 265 328 306 316 313 302 305 310 315 316 312 318 312 312 318 318 303 289 296 322 301 320 313 325 323 323 324 336 343 345 347 342 332 331 280 229 215 198 189 179
295 289 294 337 323 297 304 300 301 305 308 306 310 312 305 310 315 318 313 306 311 280 285 291 299 317 324 311 327 333 331 337 341 347 353 350 335 1 337 214 184 170 177 198
285 273 287 296 298 294 294 296 300 300 299 301 304 304 300 310 317 324 333 324 316 322 294 282 291 303 310 321 318 325 325 330 335 343 348 351 341 353 25 46 174 170 187 200
294 287 287 295 297 298 298 294 295 298 300 298 295 298 308 318 313 326 333 333 324 318 307 304 295 285 296 293 298 310 317 321 326 336 343 352 347 337 51 25 240 191 191 188
293 302 289 294 296 314 312 305 316 288 280 296 299 311 318 317 327 339 344 338 334 326 320 315 309 302 296 295 298 309 308 313 318 325 334 339 338 342 75 75 114 182 181 181
286 294 301 310 304 304 299 296 313 307 305 303 316 323 324 337 341 343 346 351 350 346 337 327 320 317 311 302 299 300 302 306 309 313 317 324 335 321 302 126 121 119 150 156
282 291 304 303 304 305 308 297 301 306 314 314 315 320 331 336 342 353 351 351 354 356 352 340 335 328 328 314 302 300 301 299 301 302 299 299 309 305 283 188 161 160 166 173
278 295 301 296 297 294 284 292 299 305 315 320 322 322 326 328 332 337 342 344 345 349 346 344 343 338 335 333 322 315 303 301 294 285 279 275 279 284 258 223 205 186 185 176
304 303 300 297 294 297 302 301 293 291 302 312 317 322 323 330 334 337 339 337 339 341 340 337 337 337 335 332 324 318 310 303 290 272 260 252 253 250 244 229 212 209 197 184
306 302 300 300 300 303 301 304 307 310 309 309 313 317 323 328 328 328 328 328 330 335 334 334 333 332 332 331 332 327 328 315 304 266 226 222 229 226 237 228 218 211 212 204
292 292 296 301 301 295 298 302 303 299 303 305 309 310 311 312 313 314 315 318 323 326 327 328 327 327 327 328 331 331 335 320 291 262 244 232 223 222 233 223 216 213 213 215
280 283 286 286 287 290 292 292 292 295 296 298 299 300 301 303 305 306 309 311 314 319 317 320 319 319 320 323 327 329 331 327 293 267 258 245 239 238 232 217 211 210 209 211
257 268 283 289 293 293 291 293 293 293 295 295 295 296 295 296 298 301 304 305 307 309 313 315 316 313 312 315 321 326 328 329 305 277 261 250 243 233 223 212 209 206 208 208
323 323 321 320 317 306 300 297 295 294 293 292 292 290 289 289 291 294 296 297 301 308 315 322 327 322 313 312 318 324 327 334 327 284 279 256 225 217 212 208 206 202 204 204
318 317 312 297 290 285 278 278 279 279 282 286 288 287 288 289 287 285 283 285 288 294 299 308 320 327 326 320 319 322 323 324 315 317 15 359 195 196 201 203 200 197 197 200
299 288 283 281 281 283 283 282 282 284 284 284 283 285 286 284 283 283 284 283 281 281 284 291 301 312 319 325 322 317 315 314 306 266 238 177 166 159 169 181 190 191 193 193
305 296 283 280 281 280 281 281 281 282 283 282 280 281 281 282 284 281 277 275 275 275 274 276 282 292 302 312 321 317 307 302 295 269 237 218 202 190 186 182 185 192 196 201
305 295 293 296 295 291 287 284 283 283 281 279 278 279 281 281 281 281 281 281 281 279 276 274 273 274 278 291 302 312 306 291 282 271 249 233 220 212 209 208 203 201 204 206
295 296 296 294 289 288 290 288 286 282 279 279 277 277 278 278 280 279 278 277 277 277 276 275 273 271 270 270 279 290 299 289 274 264 259 244 235 230 224 220 217 214 215 215
303 302 295 288 289 298 300 293 280 287 290 282 276 277 280 282 281 278 278 280 279 277 276 275 274 271 267 262 261 270 279 286 272 262 254 251 246 236 232 228 224 221 220 219
291 281 277 285 294 290 291 291 289 288 285 280 277 279 281 283 282 279 278 277 277 278 279 276 271 267 266 261 256 254 261 268 279 267 255 247 248 248 243 235 229 225 223 223